Home > Time Zones > World Clock > Weather > Serbia > Niš > Past weeks

Flag for Serbia Weather past 2 weeks in Niš, Serbia

Now
46 °F

Light rain. Cloudy.


Feels Like: 41 °F
Forecast: 43 / 55 °F
Wind: 13 mph from Northwest

Location: Nis Airport


UV Index: 0 (Low)

Visibility: N/A


Pressure: 29.86 "Hg

Humidity: 87%

Dew point: 43 °F

Location of NišLocation

Historic Weather in Niš

°F

Niš temperature yesterday

Maximum temperature yesterday: 43 °F (at 2:00 PM)
Minimum temperature yesterday: 39 °F (at 5:30 AM)
Average temperature yesterday: 40 °F

Past Weeks' High & Low Weather Summary

 TemperatureHumidityPressure
High75 °F (Apr 3, 3:30 PM)100% (Apr 7, 2:00 AM)30.12 "Hg (Apr 7, 2:00 AM)
Low39 °F (Apr 11, 6:30 AM)29% (Apr 2, 3:00 PM)29.74 "Hg (Apr 4, 7:30 PM)
Average52 °F71%29.96 "Hg
* Reported Apr 2 3:00 PM — Apr 17 3:30 PM, Niš, Weather by CustomWeather, © 2014

Note: Actual official high and low records may vary slightly from our data, if they occured in-between our weather recording intervals... More about our weather records

Advertising

Historic Weather Conditions — Data for Previous 24 hours

 ConditionsComfort  
Time TempWeatherWind HumidityBarometerVisibility
3:30 PM
Apr 17
45 °FRain. Cloudy.12 mph93%29.86 "HgN/A
3:00 PM46 °FRain. Cloudy.12 mph87%29.86 "HgN/A
2:30 PM46 °FLight rain. Broken clouds.12 mph82%29.89 "HgN/A
2:00 PM46 °FLight rain. Broken clouds.12 mph82%29.89 "HgN/A
1:30 PM46 °FLight rain. Broken clouds.10 mph76%29.89 "HgN/A
1:00 PM46 °FLight rain. Broken clouds.9 mph76%29.89 "HgN/A
12:30 PM46 °FBroken clouds.8 mph76%29.89 "HgN/A
12:00 PM46 °FBroken clouds.3 mph76%29.89 "HgN/A
11:30 AM45 °FBroken clouds.1 mph81%29.89 "HgN/A
11:00 AM43 °FBroken clouds.2 mph87%29.89 "HgN/A
10:30 AM43 °FBroken clouds.1 mph81%29.89 "HgN/A
10:00 AM43 °FBroken clouds.2 mph87%29.89 "HgN/A
9:30 AM43 °FBroken clouds.2 mph81%29.89 "HgN/A
9:00 AM43 °FBroken clouds.2 mph81%29.89 "HgN/A
8:30 AM41 °FBroken clouds.2 mph93%29.89 "HgN/A
8:00 AM41 °FBroken clouds.2 mph93%29.89 "HgN/A
7:30 AM39 °FBroken clouds.1 mph100%29.86 "HgN/A
7:00 AM39 °FBroken clouds.1 mph100%29.86 "HgN/A
6:30 AM39 °FPartly cloudy.2 mph100%29.86 "Hg5 mi
6:00 AM39 °FPartly cloudy.No wind93%29.86 "Hg5 mi
5:00 AM39 °FPartly cloudy.1 mph93%29.86 "HgN/A
4:30 AM39 °FPartly cloudy.2 mph93%29.83 "HgN/A
4:00 AM39 °FPartly cloudy.1 mph93%29.86 "HgN/A
3:30 AM39 °FLight rain. Partly cloudy.No wind93%29.86 "HgN/A
3:00 AM39 °FLight rain. Partly cloudy.2 mph93%29.86 "HgN/A
2:30 AM39 °FLight rain. Partly cloudy.1 mph100%29.86 "HgN/A
2:00 AM39 °FLight rain. Partly cloudy.2 mph100%29.86 "HgN/A
1:30 AM39 °FPartly cloudy.2 mph100%29.86 "HgN/A
1:00 AM39 °FPartly cloudy.2 mph93%29.86 "HgN/A
12:30 AM39 °FPartly cloudy.2 mph93%29.86 "HgN/A
12:00 AM39 °FPartly cloudy.2 mph93%29.86 "HgN/A
11:30 PM
Apr 16
39 °FPartly cloudy.2 mph93%29.86 "HgN/A
11:00 PM39 °FPartly cloudy.5 mph93%29.86 "HgN/A
10:30 PM39 °FLight rain. Partly cloudy.7 mph93%29.86 "HgN/A
10:00 PM39 °FLight rain. Partly cloudy.7 mph93%29.86 "HgN/A
9:30 PM39 °FLight rain. Partly cloudy.7 mph93%29.86 "HgN/A
9:00 PM39 °FLight rain. Partly cloudy.7 mph93%29.86 "HgN/A
8:30 PM39 °FLight rain. Partly cloudy.6 mph93%29.86 "HgN/A
8:00 PM39 °FLight rain. Broken clouds.6 mph93%29.86 "HgN/A
7:30 PM39 °FLight rain. Broken clouds.7 mph93%29.86 "HgN/A
7:00 PM39 °FLight rain. Broken clouds.7 mph93%29.83 "HgN/A
6:30 PM39 °FLight rain. Broken clouds.6 mph93%29.83 "HgN/A
6:00 PM39 °FLight rain. Partly sunny.10 mph93%29.83 "HgN/A
5:30 PM39 °FLight rain. Partly sunny.13 mph87%29.83 "HgN/A
5:00 PM39 °FLight rain. Fog.14 mph87%29.83 "HgN/A
4:30 PM39 °FRain. Fog.12 mph93%29.83 "Hg4 mi
4:00 PM41 °FRain. Fog.13 mph87%29.86 "Hg4 mi
Weather by CustomWeather, © 2014

See weather overview